Location: Bushrod
(6.3500°N, 10.7833°W)
Time: 05:16:57
(UTC+00:00)

SEDSat Delta rocket - Pass Details

Date: 17 September 2019
Orbit: 533 x 1001 km, 31.4° (Epoch: 19 October)

Event Time Altitude Azimuth Distance (km) Brightness Sun altitude
Rises 19:12:50 0° 297° (WNW) 2,731 7.7 -8.5°
Reaches altitude 10° 19:15:10 10° 294° (WNW) 1,802 6.7 -9.1°
Maximum altitude 19:19:12 61° 214° (SSW) 601 3.2 -10.1°
Drops below altitude 10° 19:23:11 10° 133° (SE) 1,775 5.0 -11.1°
Enters shadow 19:23:20 - 132° (SE) 1,833 5.0 -11.1°
